EN

Hourly Weather Abdulino

Today, 14 June, Monday

Time Temperature Precipitation Wind Pressure Humidity
00:00 +18°C° 0 mm 2 mps 746 mmHg 72%
01:00 +18°C° 0 mm 2 mps 746 mmHg 68%
02:00 +17°C° 0 mm 2 mps 746 mmHg 67%
03:00 +17°C° 0 mm 2 mps 746 mmHg 66%
04:00 +17°C° 0 mm 2 mps 746 mmHg 66%
05:00 +18°C° 0 mm 2 mps 746 mmHg 65%
06:00 +19°C° 0 mm 3 mps 746 mmHg 64%
07:00 +20°C° 0 mm 4 mps 747 mmHg 63%
08:00 +22°C° 0 mm 4 mps 747 mmHg 59%
09:00 +23°C° 0 mm 5 mps 747 mmHg 55%
10:00 +26°C° 0 mm 6 mps 747 mmHg 52%
11:00 +26°C° 0 mm 6 mps 747 mmHg 53%
12:00 +27°C° 0 mm 6 mps 747 mmHg 54%
13:00 +27°C° 0 mm 6 mps 747 mmHg 54%
14:00 +28°C° 0 mm 5 mps 746 mmHg 54%
15:00 +29°C° 0 mm 5 mps 746 mmHg 53%
16:00 +30°C° 0 mm 5 mps 746 mmHg 53%
17:00 +27°C° 0.6 mm 4 mps 746 mmHg 61%
18:00 +24°C° 0.6 mm 3 mps 746 mmHg 69%
19:00 +21°C° 0.6 mm 3 mps 746 mmHg 78%
20:00 +20°C° 0.1 mm 2 mps 746 mmHg 82%
21:00 +20°C° 0.1 mm 2 mps 746 mmHg 87%
22:00 +19°C° 0.1 mm 2 mps 747 mmHg 92%
23:00 +20°C° 0 mm 1 mps 747 mmHg 92%

Tomorrow, 15 June, Tuesday

Time Temperature Precipitation Wind Pressure Humidity
00:00 +20°C° 0 mm 1 mps 747 mmHg 92%
01:00 +19°C° 0 mm 1 mps 747 mmHg 92%
02:00 +20°C° 0 mm 1 mps 746 mmHg 90%
03:00 +19°C° 0 mm 2 mps 746 mmHg 89%
04:00 +19°C° 0 mm 2 mps 746 mmHg 88%
05:00 +19°C° 0 mm 2 mps 746 mmHg 86%
06:00 +20°C° 0 mm 2 mps 746 mmHg 84%
07:00 +20°C° 0 mm 2 mps 747 mmHg 81%
08:00 +23°C° 0 mm 2 mps 747 mmHg 76%
09:00 +24°C° 0 mm 2 mps 747 mmHg 71%
10:00 +25°C° 0 mm 2 mps 747 mmHg 66%
11:00 +26°C° 0 mm 2 mps 747 mmHg 63%
12:00 +27°C° 0 mm 2 mps 747 mmHg 59%
13:00 +28°C° 0 mm 2 mps 747 mmHg 56%
14:00 +28°C° 0 mm 2 mps 746 mmHg 51%
15:00 +29°C° 0 mm 2 mps 746 mmHg 46%
16:00 +30°C° 0 mm 2 mps 746 mmHg 41%
17:00 +29°C° 0 mm 2 mps 746 mmHg 47%
18:00 +28°C° 0 mm 2 mps 745 mmHg 54%
19:00 +28°C° 0 mm 2 mps 745 mmHg 60%
20:00 +26°C° 0 mm 2 mps 745 mmHg 62%
21:00 +24°C° 0 mm 2 mps 745 mmHg 65%
22:00 +22°C° 0 mm 3 mps 745 mmHg 67%
23:00 +21°C° 0 mm 3 mps 744 mmHg 67%

Day after tomorrow, 16 June, Wednesday

Time Temperature Precipitation Wind Pressure Humidity
00:00 +21°C° 0 mm 3 mps 744 mmHg 66%
01:00 +20°C° 0 mm 3 mps 744 mmHg 65%
02:00 +20°C° 0 mm 3 mps 744 mmHg 63%
03:00 +20°C° 0 mm 3 mps 744 mmHg 61%
04:00 +20°C° 0 mm 3 mps 743 mmHg 59%
05:00 +21°C° 0 mm 3 mps 743 mmHg 59%
06:00 +22°C° 0 mm 4 mps 743 mmHg 60%
07:00 +22°C° 0 mm 4 mps 743 mmHg 60%
08:00 +23°C° 0 mm 4 mps 743 mmHg 58%
09:00 +26°C° 0 mm 5 mps 743 mmHg 55%
10:00 +27°C° 0 mm 6 mps 743 mmHg 53%
11:00 +27°C° 0 mm 5 mps 743 mmHg 51%
12:00 +28°C° 0 mm 5 mps 743 mmHg 50%
13:00 +29°C° 0 mm 5 mps 743 mmHg 48%
14:00 +29°C° 0 mm 5 mps 743 mmHg 49%
15:00 +29°C° 0 mm 5 mps 743 mmHg 49%
16:00 +29°C° 0 mm 5 mps 743 mmHg 50%
17:00 +28°C° 0 mm 4 mps 742 mmHg 55%
18:00 +27°C° 0 mm 3 mps 741 mmHg 59%
19:00 +26°C° 0 mm 2 mps 741 mmHg 64%
20:00 +24°C° 1.8 mm 2 mps 741 mmHg 72%
21:00 +22°C° 1.8 mm 1 mps 741 mmHg 79%
22:00 +20°C° 1.8 mm 1 mps 742 mmHg 87%
23:00 +20°C° 0.6 mm 1 mps 741 mmHg 87%

17 June, Thursday

Time Temperature Precipitation Wind Pressure Humidity
00:00 +20°C° 0.6 mm 1 mps 741 mmHg 86%
01:00 +20°C° 0.6 mm 1 mps 741 mmHg 86%
02:00 +20°C° 0 mm 1 mps 741 mmHg 87%
03:00 +19°C° 0 mm 1 mps 741 mmHg 88%
04:00 +19°C° 0 mm 1 mps 741 mmHg 89%
05:00 +19°C° 0 mm 2 mps 741 mmHg 88%
06:00 +20°C° 0 mm 3 mps 741 mmHg 88%
07:00 +21°C° 0 mm 4 mps 741 mmHg 87%
08:00 +20°C° 0 mm 5 mps 741 mmHg 88%
09:00 +20°C° 0 mm 5 mps 742 mmHg 88%
10:00 +19°C° 0 mm 6 mps 742 mmHg 88%
11:00 +19°C° 0 mm 6 mps 742 mmHg 85%
12:00 +19°C° 0 mm 6 mps 743 mmHg 82%
13:00 +19°C° 0 mm 6 mps 743 mmHg 79%
14:00 +19°C° 0 mm 6 mps 743 mmHg 77%
15:00 +19°C° 0 mm 6 mps 744 mmHg 75%
16:00 +19°C° 0 mm 6 mps 744 mmHg 73%
17:00 +19°C° 0 mm 6 mps 744 mmHg 72%
18:00 +19°C° 0 mm 6 mps 744 mmHg 70%
19:00 +19°C° 0 mm 5 mps 744 mmHg 69%
20:00 +17°C° 0 mm 5 mps 745 mmHg 70%
21:00 +16°C° 0 mm 5 mps 745 mmHg 71%
22:00 +15°C° 0 mm 5 mps 745 mmHg 72%
23:00 +14°C° 0 mm 4 mps 746 mmHg 71%

18 June, Friday

Time Temperature Precipitation Wind Pressure Humidity
00:00 +13°C° 0 mm 4 mps 746 mmHg 69%
01:00 +13°C° 0 mm 4 mps 746 mmHg 68%
02:00 +12°C° 0 mm 4 mps 746 mmHg 68%
03:00 +12°C° 0 mm 4 mps 747 mmHg 69%
04:00 +11°C° 0 mm 4 mps 747 mmHg 69%
05:00 +12°C° 0 mm 4 mps 747 mmHg 69%
06:00 +13°C° 0 mm 4 mps 748 mmHg 68%
07:00 +14°C° 0 mm 5 mps 748 mmHg 68%
08:00 +15°C° 0 mm 5 mps 748 mmHg 63%
09:00 +16°C° 0 mm 6 mps 749 mmHg 58%
10:00 +17°C° 0 mm 6 mps 749 mmHg 53%
11:00 +19°C° 0 mm 6 mps 749 mmHg 51%
12:00 +20°C° 0 mm 6 mps 749 mmHg 49%
13:00 +20°C° 0 mm 7 mps 749 mmHg 47%
14:00 +20°C° 0 mm 6 mps 750 mmHg 51%
15:00 +19°C° 0 mm 6 mps 750 mmHg 54%
16:00 +19°C° 0 mm 5 mps 750 mmHg 58%
17:00 +17°C° 0 mm 5 mps 750 mmHg 61%
18:00 +18°C° 0 mm 4 mps 751 mmHg 64%
19:00 +18°C° 0 mm 4 mps 751 mmHg 66%
20:00 +17°C° 0 mm 3 mps 751 mmHg 70%
21:00 +15°C° 0 mm 2 mps 751 mmHg 74%
22:00 +14°C° 0 mm 2 mps 752 mmHg 78%
23:00 +13°C° 0 mm 2 mps 752 mmHg 79%

19 June, Saturday

Time Temperature Precipitation Wind Pressure Humidity
00:00 +13°C° 0 mm 2 mps 752 mmHg 80%
01:00 +13°C° 0 mm 2 mps 752 mmHg 81%
02:00 +12°C° 0 mm 2 mps 753 mmHg 83%
03:00 +12°C° 0 mm 2 mps 753 mmHg 84%
04:00 +10°C° 0 mm 2 mps 753 mmHg 85%
05:00 +13°C° 0 mm 2 mps 753 mmHg 80%
06:00 +15°C° 0 mm 2 mps 753 mmHg 74%
07:00 +16°C° 0 mm 2 mps 754 mmHg 69%
08:00 +17°C° 0 mm 2 mps 754 mmHg 64%
09:00 +19°C° 0 mm 2 mps 754 mmHg 58%
10:00 +20°C° 0 mm 3 mps 754 mmHg 53%
11:00 +21°C° 0 mm 3 mps 753 mmHg 52%
12:00 +21°C° 0 mm 3 mps 753 mmHg 50%
13:00 +22°C° 0 mm 4 mps 753 mmHg 48%
14:00 +22°C° 0 mm 4 mps 752 mmHg 50%
15:00 +22°C° 0 mm 5 mps 752 mmHg 51%
16:00 +23°C° 0 mm 5 mps 752 mmHg 52%
17:00 +22°C° 0 mm 5 mps 751 mmHg 58%
18:00 +22°C° 0 mm 4 mps 751 mmHg 63%
19:00 +21°C° 0 mm 4 mps 751 mmHg 68%
20:00 +20°C° 0 mm 4 mps 750 mmHg 74%
21:00 +19°C° 0 mm 4 mps 750 mmHg 80%
22:00 +17°C° 0 mm 4 mps 750 mmHg 86%
23:00 +17°C° 0 mm 4 mps 750 mmHg 86%
Show more